SCP
0 0 0 0 0 0 0 0 0 0 0 0 0 0 0 0 0 0 0 0 0 0 0 0 0 0 0 0 0 0 0 0 0 0 0 0 0 0 0 0 0 0 0 0 0 0 0 0 0
0 0 0 0 0 0 0 0 0 0 0 0 0 0 0 0 0 0 0 0 0 0 0 0 0 0 0 0 0 0 0 0 0 0 0 0 0 0 0 0 0 0 0 0 0 0 0 0 0
0 0 0 0 0 0 0 0 0 0 0 0 0 0 0 0 0 0 0 0 0 0 0 0 0 0 0 0 0 0 0 0 0 0 0 0 0 0 0 0 0 0 0 0 0 0 0 0 0
0 0 0 0 0 0 0 0 0 0 0 0 0 0 0 0 0 0 0 0 0 0 0 0 0 0 0 0 0 0 0 0 0 0 0 0 0 0 0 0 0 0 0 0 0 0 0 0 0
0 0 0 0 0 0 0 0 0 0 0 0 0 0 0 0 0 0 0 0 0 0 0 0 0 0 0 0 0 0 0 0 0 0 0 0 0 0 0 0 0 0 0 0 0 0 0 0 0
0 0 0 0 0 0 0 0 0 0 0 0 0 0 0 0 0 0 0 0 0 0 0 0 0 0 0 0 0 0 0 0 0 0 0 0 0 0 0 0 0 0 0 0 0 0 0 0 0
0 0 0 0 0 0 0 -0 -0 0 0 0 0 0 0 0 0 0 0 0 0 0 0 0 0 0 0 0 0 0 0 0 0 0 0 0 0 0 0 0 0 0 0 0 0 0 0 0 0
0 0 0 0 0 0 0 -0 -0 0 0 0 0 0 0 0 0 0 0 0 0 0 0 0 0 0 0 0 0 0 0 0 0 0 0 0 0 0 0 0 0 0 0 0 0 0 0 0 0
0 0 0 0 0 0 0 0 0 0 0 0 0 0 0 0 0 0 0 0 0 0 0 0 0 0 0 0 0 0 0 0 0 0 0 0 0 0 0 0 0 0 0 0 0 0 0 0 0
0 0 0 0 0 0 0 0 0 0 0 0 0 0 0 0 0 0 0 0 0 0 0 0 0 0 0 0 0 0 0 0 0 0 0 0 0 0 0 0 0 0 0 0 0 0 0 0 0
0 0 0 0 0 0 0 0 0 0 0 0 0 0 0 0 0 0 0 0 0 0 0 0 0 0 0 0 0 0 0 0 0 0 0 0 0 0 0 0 0 0 0 0 0 0 0 0 0
0 0 0 0 0 0 0 0 0 0 0 0 0 0 0 0 0 0 0 0 0 0 0 0 0 0 0 0 0 0 0 0 0 0 0 0 0 0 0 0 0 0 0 0 0 0 0 0 0
0 0 0 0 0 0 0 0 0 0 0 0 0 0 0 0 0 0 0 0 0 0 0 0 0 0 0 0 0 0 0 0 0 0 0 0 0 0 0 0 0 0 0 0 0 0 0 0 0
0 0 0 0 0 0 0 0 0 0 0 0 0 0 0 0 0 0 0 0 0 0 0 0 0 0 0 0 0 0 0 0 0 0 0 0 0 0 0 0 0 0 0 0 0 0 0 0 0
0 0 0 0 0 0 0 0 0 0 0 0 0 0 0 0 0 0 0 0 0 0 0 0 0 0 0 0 0 0 0 0 0 0 0 0 0 0 0 0 0 0 0 0 0 0 0 0 0
0 0 0 0 0 0 0 0 0 0 0 0 0 0 0 0 0 0 0 0 0 0 0 0 0 0 0 0 0 0 0 0 0 0 0 0 0 0 0 0 0 0 0 0 0 0 0 0 0
0 0 0 0 0 0 0 0 0 0 0 0 0 0 0 0 0 0 0 0 0 0 0 0 0 0 0 0 0 0 0 0 0 0 0 0 0 0 0 0 0 0 0 0 0 0 0 0 0
0 0 0 0 0 0 0 0 0 0 0 0 0 0 0 0 0 0 0 0 0 0 0 0 0 0 0 0 0 0 0 0 0 0 0 0 0 0 0 0 0 0 0 0 0 0 0 0 0
0 0 0 0 0 0 0 0 0 0 0 0 0 0 0 0 0 0 0 0 0 0 0 0 0 0 0 0 0 0 0 0 0 0 0 0 0 0 0 0 0 0 0 0 0 0 0 0 0
0 0 0 0 0 0 0 0 0 0 0 0 0 0 0 0 0 0 0 0 0 0 0 0 0 0 0 0 0 0 0 0 0 0 0 0 0 0 0 0 0 0 0 0 0 0 0 0 0
0 0 0 0 0 0 0 0 0 0 0 0 0 0 0 0 0 0 0 0 0 0 0 0 0 0 0 0 0 0 0 0 0 0 0 0 0 0 0 0 0 0 0 0 0 0 0 0 0
0 0 0 0 0 0 0 0 0 0 0 0 0 0 0 0 0 0 0 0 0 0 0 0 0 0 0 0 0 0 0 0 0 0 0 0 0 0 0 0 0 0 0 0 0 0 0 0 0
0 0 0 0 0 0 0 0 0 0 0 0 0 0 0 0 0 0 0 0 0 0 0 0 0 0 0 0 0 0 0 0 0 0 0 0 0 0 0 0 0 0 0 0 0 0 0 0 0
0 0 0 0 0 0 0 0 0 0 0 0 0 0 0 0 0 0 0 0 0 0 0 0 0 0 0 0 0 0 0 0 0 0 0 0 0 0 0 0 0 0 0 0 0 0 0 0 0
0 0 0 0 0 0 0 0 0 0 0 0 0 0 0 0 0 0 0 0 0 0 0 0 0 0 0 0 0 0 0 0 0 0 0 0 0 0 0 0 0 0 0 0 0 0 0 0 0
0 0 0 0 0 0 0 0 0 0 0 0 0 0 0 0 0 0 0 0 0 0 0 0 0 0 0 0 0 0 0 0 0 0 0 0 0 0 0 0 0 0 0 0 0 0 0 0 0
0 0 0 0 0 0 0 0 0 0 0 0 0 0 0 0 0 0 0 0 0 0 0 0 0 0 0 0 0 0 0 0 0 0 0 0 0 0 0 0 0 0 0 0 0 0 0 0 0
0 0 0 0 0 0 0 0 0 0 0 0 0 0 0 0 0 0 0 0 0 0 0 0 0 0 0 0 0 0 0 0 0 0 0 0 0 0 0 0 0 0 0 0 0 0 0 0 0
0 0 0 0 0 0 0 0 0 0 0 0 0 0 0 0 0 0 0 0 0 0 0 0 0 0 0 0 0 0 0 0 0 0 0 0 0 0 0 0 0 0 0 0 0 0 0 0 0
0 0 0 0 0 0 0 0 0 0 0 0 0 0 0 0 0 0 0 0 0 0 0 0 0 0 0 0 0 0 0 0 0 0 0 0 0 0 0 0 0 0 0 0 0 0 0 0 0
Wind_Speed
8 7 5 2 2 3 5 4 1 2 3 4 5 5 5 6 5 7 2 5 7 8 7 7 8 8 8 9 9 9 9 9 9 9 9 9 9 10 10 10 10 10 11 10 11 11 11 11 11
6 4 3 2 3 4 4 3 1 2 4 4 4 3 4 7 7 7 3 4 5 7 6 6 8 8 9 9 9 9 9 9 9 9 9 9 9 10 10 10 10 10 10 10 10 10 10 10 10
7 4 3 3 4 4 2 2 3 5 5 3 2 4 4 5 5 5 3 3 6 7 6 7 9 9 9 9 9 9 9 9 8 9 9 9 9 9 9 9 9 9 9 9 9 9 9 9 9
3 3 3 4 6 5 1 2 3 5 3 2 2 5 6 6 4 5 5 5 6 6 6 7 9 9 9 10 10 10 10 9 9 9 9 9 9 9 9 9 9 8 8 8 8 9 9 8 8
3 3 4 5 7 4 1 1 2 3 3 3 2 3 6 5 7 6 5 5 6 6 6 7 9 9 9 9 9 9 9 9 9 10 9 9 10 10 9 9 8 8 8 8 8 8 8 8 7
3 3 4 6 6 4 2 1 1 2 3 2 1 2 5 4 5 4 5 6 6 6 6 6 8 8 8 8 8 8 8 8 8 9 9 9 10 9 9 9 8 8 7 7 7 7 7 7 7
3 3 5 6 5 4 2 1 1 1 2 2 2 3 6 4 4 3 5 5 6 6 6 5 4 5 7 7 7 8 8 8 8 9 9 9 9 9 9 9 8 8 7 7 7 7 7 7 6
3 3 5 6 5 2 2 2 2 2 3 4 4 2 4 4 3 3 4 5 6 6 5 4 4 4 4 4 7 7 8 8 8 8 8 8 7 8 8 8 8 7 7 7 6 6 6 6 5
3 3 4 3 3 1 3 2 2 3 4 4 4 5 6 7 5 4 4 4 5 5 5 4 4 4 3 3 5 5 6 7 7 6 7 5 4 4 5 7 7 7 7 6 5 5 5 5 4
2 3 3 2 4 2 2 2 2 2 3 2 3 6 8 6 5 5 4 3 3 4 4 4 4 3 3 3 3 2 3 3 3 3 3 3 3 3 4 5 6 6 6 5 4 4 3 2 1
3 3 1 2 5 3 1 1 1 1 1 1 2 5 6 5 4 3 3 3 3 3 4 4 4 4 3 2 2 2 2 2 2 3 3 3 3 2 3 2 2 3 3 3 2 2 1 1 1
3 1 2 1 3 2 1 1 1 2 2 3 3 5 7 6 4 3 2 2 3 3 4 4 4 3 3 3 2 2 2 2 2 2 3 3 2 2 2 2 2 2 2 2 2 1 2 2 2
5 2 1 0 1 1 1 0 0 1 1 3 4 5 5 4 3 2 2 2 3 3 3 3 3 3 3 3 2 2 2 2 2 2 3 3 2 2 2 1 2 2 2 2 2 2 3 3 3
1 1 1 1 2 1 2 2 2 2 2 2 4 3 3 3 3 2 2 2 2 2 3 3 3 3 3 2 2 1 2 2 2 2 3 3 2 2 2 2 2 2 2 2 2 2 2 2 2
2 2 4 5 5 3 2 3 4 3 4 3 2 3 3 3 3 2 2 2 2 3 3 2 2 3 2 2 2 2 2 2 2 2 3 3 2 2 2 1 2 2 2 2 2 2 1 2 2
5 5 5 4 4 4 4 5 2 3 4 3 3 2 3 3 3 3 3 3 3 3 3 2 2 2 2 2 2 1 1 2 1 1 2 2 2 2 2 1 1 2 2 2 1 1 1 1 1
5 6 6 3 4 4 5 3 3 3 3 2 2 2 2 2 3 3 4 4 3 3 3 3 2 2 2 2 1 1 1 1 1 1 1 1 2 2 1 1 1 1 1 1 2 1 1 1 1
3 5 5 4 3 3 4 4 3 3 2 2 2 2 2 2 2 4 4 4 3 3 3 3 2 3 2 2 2 2 2 1 1 1 1 1 1 1 1 1 1 1 1 1 1 1 1 1 1
4 5 6 3 1 2 5 5 3 3 2 1 1 2 2 3 4 4 4 4 3 3 3 3 2 2 2 1 1 1 1 1 1 1 1 1 1 1 1 1 1 1 0 0 1 1 1 1 1
5 6 6 2 1 2 4 6 3 2 3 2 1 2 2 3 4 4 4 4 4 4 3 3 2 2 2 1 1 0 0 0 0 0 1 1 1 0 0 1 0 0 0 0 1 1 1 1 1
4 4 4 4 5 4 5 6 5 3 3 3 2 3 3 3 3 3 4 3 4 4 3 3 3 3 2 2 1 1 1 1 1 1 1 1 0 0 0 0 0 0 0 0 0 0 1 1 1
3 2 4 4 4 4 3 5 3 4 3 2 1 2 2 3 3 4 4 4 4 4 4 3 3 3 3 2 2 1 1 1 1 1 1 1 1 0 0 0 0 0 0 0 1 0 1 1 1
2 3 4 5 5 5 4 5 3 4 3 2 1 2 2 3 4 4 4 4 4 4 4 4 4 4 3 3 2 2 1 1 1 1 2 1 1 1 0 1 1 1 0 0 1 1 1 1 1
2 2 4 4 2 5 5 4 3 2 2 3 2 3 3 4 4 4 4 5 5 5 5 4 4 4 4 4 3 2 2 2 2 2 2 2 1 1 1 1 1 1 1 1 1 1 2 1 1
1 1 1 1 3 5 1 3 3 2 4 3 4 3 4 4 4 4 5 5 6 6 6 5 5 5 5 4 3 3 2 2 2 2 1 2 1 2 2 2 2 2 2 2 2 2 2 2 2
1 0 1 3 4 3 2 5 1 4 5 5 5 4 4 4 4 4 4 4 5 6 6 6 5 5 5 5 4 3 3 2 2 2 2 2 2 2 2 2 2 3 2 2 2 2 2 2 3
1 1 1 1 3 4 5 2 2 2 4 4 3 3 3 3 3 3 4 4 4 5 5 6 6 6 6 6 5 3 3 3 3 3 3 2 2 3 2 3 3 3 3 3 2 2 3 3 3
2 1 0 2 2 5 5 3 2 3 2 1 2 2 2 3 3 3 4 4 4 4 4 5 5 5 6 6 5 4 4 3 3 3 3 3 4 4 3 3 3 3 3 3 3 3 3 3 3
1 1 2 2 3 3 4 3 2 2 3 2 1 1 2 2 3 3 3 3 3 3 4 5 5 6 6 6 6 5 5 4 4 3 3 4 4 4 4 4 4 4 4 4 3 4 4 5 4
0 1 2 3 4 3 3 4 2 3 3 2 2 2 2 2 2 2 3 3 3 4 4 5 5 5 6 6 6 5 5 5 5 5 4 4 5 4 4 4 4 4 4 4 4 5 5 5 6
Wind_Direction
288 260 250 247 242 232 238 245 237 81 49 42 26 23 46 39 42 103 104 65 86 98 102 104 96 91 87 86 85 82 78 75 72 72 70 68 68 67 67 67 67 67 65 65 66 68 69 70 71
279 265 250 236 241 233 231 216 131 62 75 65 39 20 58 72 71 94 83 62 88 96 99 98 94 94 91 88 86 83 78 74 72 71 70 68 66 65 64 65 66 66 67 67 66 67 70 71 70
262 253 245 228 236 241 233 119 115 99 89 81 71 38 39 61 73 85 84 81 85 88 92 98 97 96 93 88 83 81 76 72 72 71 70 68 64 63 62 63 65 64 65 68 70 69 71 71 68
248 224 245 246 243 252 257 99 106 120 109 85 103 97 78 41 48 77 92 85 85 84 87 95 97 95 91 89 85 79 75 71 72 71 68 69 65 60 60 60 62 63 65 66 69 70 70 68 65
238 237 225 236 243 244 240 143 139 132 134 130 125 108 92 65 67 85 93 86 84 82 83 91 89 92 90 88 87 83 78 74 71 68 65 64 64 59 57 59 59 61 64 66 66 69 69 67 61
239 238 234 229 228 215 206 174 174 133 103 87 100 122 98 89 74 74 81 82 80 79 81 86 82 83 83 82 82 81 79 76 73 69 67 63 61 59 53 56 56 56 61 65 66 66 65 63 56
252 243 251 254 235 214 190 139 153 145 117 75 354 107 113 98 70 75 85 83 81 75 76 77 80 82 78 75 74 74 76 75 71 69 67 63 61 59 54 50 51 51 53 60 65 63 60 56 52
283 278 253 253 246 217 138 99 44 26 78 49 19 64 114 119 104 96 89 80 74 70 70 69 62 62 72 77 74 73 73 71 71 67 62 60 61 60 54 49 47 48 47 48 56 60 56 50 47
274 255 249 264 271 146 114 112 64 44 76 63 48 50 82 111 114 103 90 75 65 62 59 62 62 59 56 69 76 74 76 71 71 70 63 58 63 63 59 54 46 46 44 42 46 54 49 39 39
226 236 246 343 347 60 98 90 114 128 108 95 82 82 97 108 117 120 115 102 81 66 55 48 51 57 56 55 68 72 74 72 69 76 65 56 57 54 59 58 49 42 37 34 35 34 28 22 26
211 234 253 6 359 23 61 77 52 156 138 152 159 134 125 127 135 139 129 113 100 83 64 47 45 44 53 48 54 55 65 60 57 62 52 61 63 57 52 52 49 43 36 30 21 13 1 9 19
224 277 331 357 354 12 25 78 49 39 56 33 72 120 131 140 147 144 131 109 99 83 65 47 39 38 37 51 44 54 64 60 56 43 46 55 67 59 45 36 26 26 28 20 12 4 11 12 4
226 210 196 156 4 37 44 326 134 140 86 65 82 96 116 128 124 111 97 88 89 84 68 56 43 44 31 42 38 53 58 59 60 50 48 46 60 67 55 41 32 21 15 17 9 15 19 7 359
213 170 200 214 208 215 196 220 193 196 144 119 119 119 117 112 115 111 99 88 79 78 74 59 50 42 37 42 44 58 71 60 52 50 52 49 49 52 53 41 31 29 15 358 0 12 18 7 5
198 207 223 221 209 191 190 225 218 188 158 148 132 116 103 88 85 87 87 89 85 77 76 62 57 37 36 46 41 53 71 69 65 54 51 54 48 41 42 46 28 18 7 0 3 9 18 20 13
218 225 228 207 195 175 197 242 156 140 151 151 136 117 101 81 66 61 55 53 69 80 81 63 54 43 26 35 37 43 74 79 72 63 62 55 51 50 47 51 30 5 2 8 2 15 19 14 13
212 231 235 208 191 186 210 236 132 130 145 153 144 141 132 106 75 62 59 56 54 62 74 66 55 52 30 21 28 44 64 74 79 66 75 71 56 55 51 52 25 7 3 4 355 7 4 7 5
243 255 261 237 207 222 228 227 174 159 175 181 157 132 108 89 84 73 61 56 55 52 58 67 61 47 35 27 32 37 49 45 56 57 54 63 66 64 59 49 21 12 18 8 12 357 353 347 342
296 277 271 277 274 252 248 254 225 172 161 125 107 94 74 59 63 71 57 46 47 47 43 40 52 49 47 32 28 27 22 357 20 39 50 41 48 80 91 55 19 8 20 350 14 4 4 340 342
278 277 280 297 351 303 283 271 233 181 155 153 144 112 90 67 53 50 59 47 37 34 28 27 25 29 26 6 349 317 279 287 296 26 40 29 10 32 58 112 135 347 11 20 50 33 352 304 317
267 271 293 312 320 269 279 272 202 160 135 113 76 74 72 72 59 48 42 47 33 25 21 19 17 11 0 9 18 22 14 6 17 8 350 324 318 21 43 233 190 269 196 181 113 122 6 288 293
259 323 301 298 297 270 217 279 214 155 141 126 97 78 69 57 51 42 34 28 24 15 14 14 12 18 5 13 25 25 5 323 315 302 301 302 300 261 194 217 246 262 227 194 257 281 257 208 252
309 331 288 271 265 284 244 247 262 150 184 200 163 88 73 62 53 42 31 22 18 17 18 13 11 11 7 5 7 358 347 325 329 335 330 335 307 292 263 235 211 246 253 247 277 286 269 235 227
319 303 274 259 247 261 226 211 267 177 187 169 132 92 70 57 51 38 26 23 21 19 17 13 8 6 7 2 358 358 346 340 339 334 324 328 321 301 289 268 244 236 247 238 246 255 263 264 252
328 9 334 298 230 242 156 206 243 75 60 92 115 93 71 57 47 36 24 19 16 13 10 8 6 360 1 359 351 346 338 324 302 295 292 308 305 301 279 277 256 246 244 246 243 244 252 254 246
254 166 180 240 264 301 298 231 209 90 71 70 83 81 67 55 41 33 25 18 14 7 5 2 1 355 352 349 341 342 343 331 312 310 299 285 279 271 281 267 257 256 251 251 239 245 246 245 247
230 214 327 318 288 276 247 199 106 77 71 73 77 72 63 50 37 28 22 19 14 4 358 356 357 354 350 346 339 341 342 331 317 315 306 289 288 283 277 269 259 259 251 245 240 242 248 248 243
344 343 150 182 248 267 266 233 212 181 191 130 88 70 54 41 29 20 15 12 10 360 352 355 356 352 348 345 339 340 337 328 318 311 306 300 290 279 273 270 262 259 257 248 237 242 243 245 248
163 213 233 241 240 244 275 273 31 130 146 149 134 88 56 39 19 9 1 359 359 358 358 355 354 351 347 345 342 341 336 331 324 312 307 303 293 276 267 263 261 255 254 252 245 241 241 241 246
54 229 188 200 250 232 258 267 37 82 97 107 105 85 60 32 13 3 357 356 356 356 355 353 351 347 343 341 338 335 331 329 327 324 317 312 302 288 270 263 261 257 253 249 247 245 242 241 241